星链-34641 (STARLINK-34641)

导读

STARLINK-34641是美国SpaceX公司星链互联网星座的一员,于2025年7月16日发射,是星链星座持续扩容过程中部署的低轨通信卫星。它运行在近地轨道,属于星链项目,旨在为全球提供高速低延迟互联网服务,尤其覆盖地面网络难以到达的偏远区域,助力缩小数字鸿沟,同时星链计划也持续推进星座升级,该卫星加入后进一步充实了在轨卫星网络规模。

Basic Information
目录编号:
64797
目录名称:
STARLINK-34641
国际标识:
2025-150H
轨道中心:
EARTH
卫星名称:
星链-34641
卫星全名:
星链-34641 (STARLINK-34641)
卫星状态:
在轨 (已飞行332 天)
发射日期:
2025-07-16 UTC
国别 :
美国 (US)
星等 :
--
Orbit Information
数据来源 国际轨道数据 AOE轨道数据
星历时间 2026-06-13T22:18:23+0800
9小时前
查看轨道信息
2026-06-12T05:00:00+0800
2天前
查看轨道信息
半长轴 6950.14km 6950.211km
偏心率 0.0003626 0.0003404
轨道倾角 70.000° 69.999°
近地点辐角 270.802° 271.992°
升交点赤经 252.597° 256.936°
平近点角 89.272° 167.077°
近地点 569.482km 569.708km
远地点 574.524km 574.44km
周期 96.106分钟 96.107分钟
每日圈数 14.983472 14.983242
Detailed Information
固有亮度:
5
最大亮度:
2.5
卫星平台:
Starlink V1.0
覆盖范围:
全球
运营商:
太空探索技术公司
运营商所在国:
美国
制造商(研发单位):
太空探索技术公司
制造商所在国:
美国
使用方式:
暂无
Satellite Introduction
Starlink 计划是 SpaceX 推出的全球卫星互联网项目,通过发射低轨道卫星,为全球尤其是偏远地区提供高速、低延迟的互联网服务。自 2019 年起,Starlink 已部署数千颗卫星,旨在缩小全球数字鸿沟,推动互联网普及。该项目还为军事、航空等行业提供通信支持,带来广泛经济效益。
2D Orbit Map
3D Orbit Map
Orbit Altitude Analysis Chart
Orbit Inclination Analysis Chart
Orbit Comprehensive Analysis Chart
View Comprehensive Chart